Location: Iesi
(43.5167°N, 13.2333°E)
Time: 02:01:31
(UTC+00:00)

Cosmos 1153 Rocket - Pass Details

Date: 08 August 2020
Orbit: 954 x 1005 km, 82.9° (Epoch: 19 September)

Event Time Altitude Azimuth Distance (km) Brightness Sun altitude
Exits shadow 21:03:26 45° 181° (S) 1,279 4.7 -23.7°
Maximum altitude 21:05:29 86° 98° (E) 965 4.3 -23.9°
Drops below altitude 10° 21:11:41 10° 9° (N) 2,705 7.4 -24.5°
Sets 21:14:12 0° 9° (N) 3,661 8.2 -24.8°
